Temperature
21 20 20 19 19 19 22 23 24 25 25 25 25 24 23 22 22 21 21 21 21 21 20 20 19 19 19 19 19 19 19 19 19 19 19 19 19 19 19 18 18 18 18 18 18 18 18 18 18
21 20 20 19 19 21 22 24 24 25 25 25 25 24 23 22 22 21 21 21 21 21 20 20 19 19 19 19 19 19 19 19 19 19 19 19 19 19 18 18 18 18 18 18 18 18 18 18 17
21 20 20 18 20 21 23 24 24 25 25 25 24 23 23 22 22 22 22 21 21 21 20 20 19 19 19 19 19 19 19 19 19 19 19 19 18 18 18 18 18 18 18 18 18 18 17 17 17
21 20 20 19 22 22 23 24 25 25 25 25 24 22 22 22 22 22 22 21 21 20 20 20 20 19 19 19 19 19 19 19 19 19 18 18 18 18 18 18 18 18 18 18 18 17 17 17 17
21 21 19 20 21 22 24 25 25 25 25 24 23 22 21 22 22 22 22 21 21 20 20 20 19 19 19 19 19 19 19 18 18 18 18 18 18 18 18 18 18 18 18 18 17 17 17 17 17
22 19 19 20 22 24 25 26 26 25 24 24 23 21 21 22 22 22 21 21 21 20 20 19 19 19 19 19 19 19 18 18 18 18 18 18 18 18 18 18 18 18 18 17 17 17 17 17 17
21 19 20 21 22 24 26 27 26 24 24 24 23 21 20 21 21 21 21 21 20 20 20 19 19 19 19 19 19 19 18 18 18 18 18 18 18 18 18 18 18 18 17 17 17 17 17 17 17
22 19 21 21 22 24 26 26 26 25 24 24 24 21 20 21 21 21 20 20 20 20 20 19 19 19 18 18 18 18 18 18 18 18 18 18 18 18 18 18 18 17 17 17 17 17 17 17 17
22 19 20 22 23 25 26 26 26 25 24 23 23 23 22 22 21 20 20 19 19 19 19 19 19 18 18 18 18 18 18 18 18 18 18 18 17 17 17 17 17 17 17 17 17 17 17 17 17
22 19 21 22 24 25 26 26 25 24 23 22 22 22 22 21 20 20 20 19 19 19 19 19 19 18 18 18 18 18 18 18 18 17 17 17 18 17 17 17 17 17 17 17 17 17 17 17 17
21 20 22 24 25 26 25 26 25 24 22 22 22 22 21 20 20 20 20 20 19 19 18 18 18 18 18 18 18 18 18 18 18 17 17 18 18 17 17 17 17 17 17 17 17 17 17 17 17
22 22 24 25 26 26 25 25 24 24 24 25 24 23 21 20 20 20 20 19 19 18 18 18 18 18 18 18 18 18 18 18 18 18 17 17 18 17 17 17 17 17 17 17 17 17 17 17 17
23 24 25 26 26 26 25 24 24 23 24 24 23 22 21 20 20 19 19 19 19 18 18 18 18 18 18 18 18 18 18 18 18 18 17 17 17 17 17 17 17 17 17 17 17 17 17 17 17
24 24 25 26 26 26 25 24 23 23 23 23 22 21 21 20 20 19 19 19 19 19 19 18 18 18 18 18 18 18 18 18 18 17 17 17 17 17 17 17 17 17 17 17 17 17 17 17 17
24 24 24 25 25 25 25 24 23 23 22 21 21 21 20 20 19 19 19 19 19 19 19 18 18 18 18 18 18 18 18 18 18 17 17 17 17 17 17 17 17 17 17 17 17 17 17 17 17
23 23 23 24 25 25 25 24 22 22 22 20 20 20 20 19 19 19 19 19 19 19 18 18 18 18 18 18 18 18 18 17 17 17 17 17 17 17 17 17 17 17 17 17 16 16 16 16 17
21 22 23 23 24 24 24 23 22 21 21 20 20 20 20 19 19 19 19 19 19 19 18 18 18 18 18 18 17 17 17 17 17 17 17 17 17 17 17 17 17 16 16 16 16 16 16 16 16
22 22 22 23 23 23 22 22 21 21 20 20 19 19 19 19 19 19 19 19 18 18 18 18 18 18 18 17 17 17 17 17 17 17 17 17 17 17 17 16 16 16 16 16 16 16 16 16 16
23 22 22 22 23 23 22 21 21 20 20 19 19 19 19 19 19 19 19 19 18 18 18 18 18 18 17 17 17 17 17 17 17 17 17 17 17 17 16 16 16 16 16 16 16 16 16 16 16
22 22 21 22 23 23 22 21 21 20 20 20 19 19 19 19 19 19 19 19 18 18 18 18 18 17 17 17 17 17 17 17 17 17 17 17 17 17 16 16 16 16 16 16 16 16 16 16 16
22 21 22 22 22 22 22 21 21 20 20 20 20 19 19 19 19 19 19 18 18 18 18 18 18 18 17 17 17 17 17 17 17 17 17 17 17 17 16 16 16 16 16 16 16 16 16 16 16
21 22 22 23 21 20 21 20 20 20 19 19 19 19 19 19 19 19 19 19 18 18 18 18 18 18 17 17 17 17 17 17 17 17 17 17 17 16 16 16 16 16 16 16 16 16 16 16 16
22 23 23 22 21 20 20 20 19 19 19 19 19 19 19 19 19 19 19 19 19 18 18 18 18 18 17 17 17 17 17 17 17 17 17 17 17 17 16 16 16 16 16 16 16 16 16 16 16
23 22 20 18 18 20 20 20 20 18 19 19 19 19 19 19 19 19 19 19 18 18 18 18 18 18 17 17 17 17 17 17 17 17 17 17 17 17 16 16 16 16 16 16 16 16 16 16 16
22 20 19 20 18 19 19 19 19 20 19 19 19 19 19 19 19 19 19 18 18 18 18 18 18 18 17 17 17 17 17 17 17 17 17 17 17 17 17 16 16 16 16 16 16 16 16 16 16
21 20 19 20 20 19 19 19 19 20 20 20 20 19 19 19 19 19 19 19 19 18 18 18 18 18 17 17 17 17 17 17 17 17 17 17 17 17 17 16 16 16 16 16 16 16 16 16 16
20 19 19 18 19 19 19 19 19 20 19 19 19 18 18 19 19 20 19 19 19 19 18 18 18 18 17 17 17 17 17 17 17 17 17 17 17 17 16 16 16 16 16 16 16 16 15 15 15
21 18 17 17 18 20 20 20 19 21 20 19 18 18 18 19 20 20 20 19 19 19 18 18 18 18 18 17 17 17 17 17 17 17 17 17 17 17 17 16 16 16 16 16 15 15 15 15 15
20 19 17 16 17 18 20 20 20 19 19 18 18 19 19 19 20 20 20 19 19 18 18 18 18 17 17 17 17 17 17 17 17 17 17 17 17 17 16 16 16 16 16 15 15 15 15 15 15
21 19 17 19 18 17 18 19 20 18 18 18 18 19 19 20 20 20 20 19 19 18 18 18 18 18 17 17 17 17 17 17 17 17 17 17 16 16 16 16 16 16 16 15 15 15 15 15 15
Wind_Speed
5 4 3 1 3 4 3 4 2 2 2 1 4 5 6 5 4 3 3 12 16 16 16 20 20 20 19 19 19 19 19 19 18 18 17 17 16 15 14 13 13 12 12 12 13 13 14 15 15
4 4 1 2 4 3 4 3 1 1 2 5 5 4 4 2 3 6 6 11 17 16 16 19 21 20 19 19 18 18 18 18 17 17 16 16 15 14 14 13 12 12 12 12 13 13 14 15 15
3 2 3 4 3 3 4 3 1 0 2 2 3 3 3 3 5 7 7 14 15 14 16 20 23 21 20 19 18 18 17 17 17 16 15 15 14 13 13 13 12 12 12 12 13 13 14 14 14
2 3 4 4 1 4 5 4 2 2 1 2 4 4 3 2 5 7 13 16 15 13 15 20 23 22 20 19 18 17 17 16 16 15 15 14 13 13 12 12 12 12 12 12 13 13 14 14 13
3 4 5 3 5 5 5 4 4 4 2 1 3 4 2 3 8 14 16 16 16 13 13 19 22 21 20 19 18 17 16 16 16 15 14 13 13 13 12 12 12 12 12 12 12 13 13 13 12
4 4 4 3 6 5 4 3 3 3 2 3 4 4 1 4 9 13 14 14 14 14 12 17 22 21 20 19 18 17 16 15 15 14 13 13 13 12 12 12 12 12 12 12 11 12 11 11 11
4 4 1 3 5 5 3 0 3 4 4 5 6 5 2 4 7 12 12 12 12 12 10 12 17 19 20 19 18 17 16 15 14 14 13 13 12 12 12 11 11 11 11 11 11 11 10 10 9
4 4 1 3 4 5 3 2 0 3 3 3 5 6 5 6 11 12 12 11 11 10 9 9 12 14 15 16 18 17 16 15 14 14 13 13 12 12 11 10 10 11 11 10 10 9 9 8 9
4 4 2 4 4 5 3 2 1 2 4 2 1 2 5 16 16 14 13 10 11 11 8 9 9 10 12 13 16 16 16 15 14 13 13 11 9 9 9 9 10 10 10 9 9 8 8 8 8
4 3 7 6 5 6 6 4 2 2 2 1 2 6 13 17 17 17 16 15 14 13 10 8 9 9 10 11 11 11 11 12 10 9 10 10 9 8 7 8 9 9 9 8 8 8 8 7 7
6 7 6 7 8 6 6 3 3 6 4 7 8 12 16 16 15 15 15 14 14 13 11 9 9 8 7 6 8 7 8 9 9 9 10 10 8 6 5 4 5 6 6 6 6 6 6 6 5
5 7 6 7 6 4 3 2 2 4 6 5 10 15 17 17 16 16 15 13 12 13 11 9 9 8 7 7 6 6 6 6 6 8 10 9 5 4 4 3 4 4 4 5 4 4 4 5 5
5 6 6 7 9 4 1 1 2 1 1 6 12 15 16 15 13 11 11 11 12 12 11 10 9 9 7 6 5 6 5 6 7 8 9 9 5 4 3 3 3 3 4 4 3 3 3 3 3
4 6 8 7 5 2 1 1 2 1 5 9 12 13 14 14 12 11 11 12 13 13 13 11 10 8 7 5 5 6 6 7 7 7 8 9 7 5 4 3 3 3 3 3 3 3 3 2 3
4 6 8 4 3 1 2 3 1 3 7 8 9 9 10 10 11 12 14 14 13 13 12 11 10 9 8 7 6 6 7 8 6 7 9 9 8 7 5 4 3 3 4 4 3 3 3 2 2
4 4 5 6 4 2 3 4 3 3 7 8 8 8 8 8 9 10 10 10 11 12 12 12 11 10 9 7 5 5 6 7 6 7 8 9 9 8 6 4 3 4 4 4 3 3 2 2 2
5 3 4 7 4 3 2 5 4 3 6 7 7 7 7 7 7 8 9 10 12 13 13 12 10 10 9 7 5 5 5 5 6 8 8 9 9 10 7 4 4 5 4 3 3 2 2 2 2
3 3 4 6 5 5 3 4 3 2 5 5 5 5 6 7 8 8 9 10 11 11 11 11 10 9 9 6 5 4 4 4 5 6 7 9 9 10 8 5 5 6 4 3 2 3 2 2 2
3 3 8 9 5 3 3 4 4 2 3 4 4 5 6 6 5 7 7 9 10 10 11 11 11 9 8 6 5 5 4 4 4 4 7 9 9 10 8 5 5 5 4 4 4 3 3 2 2
4 5 7 8 3 1 3 4 3 2 4 4 5 6 7 6 6 7 8 9 11 12 12 11 11 10 9 7 5 4 4 3 3 3 5 7 9 9 8 6 5 5 4 4 4 3 3 2 1
5 6 7 6 5 4 2 6 4 2 1 3 3 5 6 8 9 9 10 10 11 12 13 12 10 9 9 8 6 5 4 3 2 3 3 5 8 9 8 8 6 5 5 5 4 4 5 3 1
6 7 7 4 2 4 2 3 7 4 4 4 3 3 6 7 7 9 10 11 11 11 10 10 10 10 10 9 9 9 6 5 5 5 4 5 7 8 9 8 7 6 5 5 5 4 3 4 3
8 2 2 2 3 1 2 2 8 3 5 6 4 4 5 6 8 9 9 10 10 10 9 9 9 9 9 9 9 8 6 4 4 4 5 5 4 6 8 8 7 6 5 5 5 4 4 3 4
5 5 6 6 5 1 3 3 7 5 6 4 3 4 5 6 6 7 6 7 8 8 9 9 10 9 9 10 9 9 9 7 7 6 6 5 3 3 5 7 6 6 5 5 5 5 5 3 3
5 5 4 4 4 6 3 3 9 7 5 5 5 5 5 6 6 8 8 8 8 9 9 9 10 9 9 10 9 9 9 9 9 8 7 6 4 4 6 6 5 5 5 6 5 5 4 4 4
7 10 8 6 5 5 3 5 7 5 3 2 3 6 7 7 8 9 9 9 9 9 9 9 10 9 9 9 9 8 8 7 6 7 7 7 6 6 6 7 6 6 7 6 6 4 4 4 4
8 6 8 7 3 1 5 7 8 1 0 1 3 6 8 8 8 9 9 8 8 8 8 9 9 8 9 9 8 8 8 7 7 7 6 6 5 6 7 7 7 6 7 7 6 4 4 4 3
7 10 7 7 7 3 5 5 5 5 3 3 4 6 7 7 7 7 7 7 6 6 7 7 8 8 8 9 9 8 8 8 7 7 7 7 6 6 7 8 7 7 6 6 6 4 4 5 4
6 6 6 6 6 7 3 7 6 7 6 6 6 6 7 8 8 7 6 6 6 6 6 7 7 7 8 8 8 7 7 7 6 6 7 6 6 6 7 7 7 7 7 6 6 5 5 5 3
6 8 8 7 4 5 5 8 5 4 4 5 5 4 5 6 6 7 7 7 7 6 6 6 6 7 7 7 7 7 6 6 6 6 6 6 6 6 7 7 6 6 6 6 6 5 5 5 4
Wind_Direction
189 153 147 134 55 43 339 297 278 330 57 106 131 133 139 149 172 191 122 140 137 144 150 150 147 143 139 135 132 130 128 128 127 128 129 129 129 130 129 129 128 125 122 120 119 119 119 119 119
140 149 140 62 72 42 313 301 314 289 144 123 98 97 106 111 92 115 128 143 142 144 147 150 149 146 143 140 137 135 133 131 130 131 131 131 132 132 131 130 129 127 124 123 121 120 120 121 120
157 168 91 65 92 181 261 268 254 24 128 123 102 79 113 140 134 144 148 144 140 143 147 154 152 150 147 145 142 138 137 136 135 134 134 134 134 133 132 132 130 128 126 126 124 122 123 123 124
126 64 58 61 280 235 234 248 214 165 204 63 116 98 74 73 146 144 139 143 141 142 147 156 154 153 151 149 146 143 142 141 139 137 136 136 136 136 134 132 130 129 128 126 124 123 124 125 125
71 77 51 6 285 263 249 244 207 186 192 134 128 126 87 28 109 130 140 144 144 142 147 156 155 155 154 153 150 148 147 145 143 140 139 138 137 135 133 130 129 128 128 127 125 124 126 128 128
59 64 63 325 296 285 264 219 172 180 184 144 136 130 84 94 122 137 141 143 144 146 148 155 157 157 157 156 153 151 151 149 147 145 144 141 138 137 133 132 130 129 128 127 126 126 127 129 128
104 92 146 263 288 299 281 290 153 166 179 178 151 135 128 127 132 133 133 135 139 143 145 150 157 159 159 158 156 155 155 153 151 150 148 144 142 140 137 136 134 131 130 129 128 127 127 128 127
129 101 329 270 265 279 278 352 38 154 175 118 132 154 186 161 135 127 125 130 137 142 144 144 149 152 155 159 159 158 157 157 156 154 152 148 146 144 141 138 137 133 131 131 129 126 124 123 123
105 76 252 241 239 267 274 327 358 89 106 96 83 133 146 136 135 133 134 137 146 150 148 144 143 145 149 154 162 160 158 159 159 158 154 146 136 136 138 143 142 137 136 132 128 123 119 114 115
111 168 235 227 227 264 281 270 208 131 135 151 101 92 126 140 147 151 155 158 160 161 158 149 146 145 148 157 155 152 152 152 149 148 140 131 129 133 138 151 148 142 138 135 128 120 111 102 98
170 208 248 258 249 260 278 274 167 148 210 210 181 151 146 151 157 162 165 166 166 162 162 157 152 147 146 141 140 137 136 138 139 139 135 133 127 126 123 126 124 122 121 110 108 100 99 105 109
198 245 243 273 283 284 250 216 164 180 221 198 160 151 156 163 169 173 171 168 162 163 166 158 154 153 148 138 139 135 135 137 138 142 143 139 132 129 132 125 117 107 109 105 101 105 109 112 121
226 266 266 265 291 270 229 182 177 220 164 117 133 148 162 171 174 174 167 165 163 166 164 161 158 156 149 140 146 148 146 150 149 151 155 156 150 150 147 140 129 127 126 124 118 116 120 118 120
255 271 290 291 295 305 159 340 94 225 130 128 143 160 169 173 172 168 167 169 170 170 165 163 163 157 151 154 157 157 158 157 156 161 168 170 167 164 158 152 148 150 152 145 132 122 122 120 122
302 311 326 323 322 329 81 354 282 191 136 136 152 163 169 174 177 182 178 174 171 168 162 164 165 160 160 165 168 162 163 161 163 171 175 176 176 172 164 160 165 173 163 144 121 104 101 109 113
360 9 337 313 332 346 73 286 280 170 144 147 157 167 176 182 180 180 175 167 164 160 164 168 174 170 168 167 167 159 163 162 167 172 173 179 182 179 165 165 175 171 154 139 128 117 102 100 112
23 353 305 310 332 10 41 272 287 182 151 158 166 177 182 179 174 169 169 164 163 164 167 170 174 173 170 164 159 149 154 158 165 168 171 179 182 183 171 169 169 161 145 138 148 115 125 135 135
256 288 300 297 307 348 320 275 289 195 159 163 171 178 182 186 184 167 166 166 163 166 169 172 172 171 162 155 142 137 141 150 157 165 172 176 177 177 165 157 160 154 140 138 129 118 96 112 129
200 260 283 280 294 327 294 290 285 218 175 171 180 190 194 189 166 153 159 166 163 168 170 175 172 169 160 158 160 161 170 165 162 165 171 173 169 167 160 157 153 152 153 156 147 123 112 98 111
221 274 284 295 339 328 306 304 291 226 215 204 197 202 194 172 163 166 167 172 175 177 178 179 176 168 167 168 159 154 149 151 152 152 161 168 165 164 166 159 159 155 140 136 145 138 128 108 115
239 227 251 268 329 4 7 325 303 286 249 221 207 194 190 182 177 176 177 178 178 181 181 181 177 169 167 158 141 131 113 100 128 157 167 169 169 168 164 162 153 153 154 162 166 158 148 144 118
255 233 228 251 303 301 45 291 292 287 293 252 223 178 188 181 176 180 180 182 183 183 177 172 171 169 164 160 166 166 169 174 186 177 174 164 167 167 167 162 157 160 160 163 172 162 154 144 150
221 223 207 246 186 310 355 187 285 311 275 257 224 190 186 181 178 180 176 176 174 175 172 169 166 169 164 170 175 172 174 174 159 153 160 164 164 167 167 162 160 163 162 165 164 156 156 153 156
184 73 52 49 76 303 252 187 277 254 240 255 214 190 177 176 171 164 158 156 159 162 165 166 169 170 167 173 177 177 176 167 161 169 172 170 164 166 169 164 163 165 163 165 166 163 161 161 151
130 96 27 358 9 251 263 217 251 260 244 230 207 188 172 171 164 157 157 162 166 168 170 171 173 175 172 176 181 182 181 177 181 181 182 175 174 180 184 174 168 170 170 164 157 157 163 166 162
174 149 162 195 222 271 306 242 258 267 252 216 178 167 165 170 172 171 173 172 173 173 172 173 178 180 176 177 181 182 180 180 187 185 182 184 187 186 179 176 176 174 169 164 158 157 167 166 170
145 177 164 137 150 266 286 286 304 251 234 132 150 162 174 178 177 175 170 169 171 173 174 175 178 178 180 180 177 179 180 181 187 185 184 188 187 183 177 178 176 174 171 166 160 163 167 164 175
145 143 111 129 150 222 288 283 258 265 235 199 188 185 183 177 171 166 165 164 168 170 168 167 175 183 184 183 184 186 184 185 185 180 185 189 188 181 173 178 177 174 173 170 164 164 167 167 176
122 113 114 118 147 156 227 269 231 228 218 199 201 196 183 176 174 165 160 159 160 159 163 170 176 177 181 184 184 181 183 182 177 182 188 185 181 176 177 178 175 174 173 171 169 172 171 175 180
152 158 147 148 185 166 171 260 280 218 205 197 204 194 177 170 163 156 152 154 157 163 166 172 178 182 183 178 175 177 174 172 177 188 186 178 176 174 173 169 169 174 171 169 172 176 174 175 182
Height
1493 1492 1492 1494 1496 1502 1501 1492 1485 1483 1482 1481 1482 1483 1485 1487 1492 1496 1490 1491 1496 1500 1505 1509 1512 1515 1518 1520 1522 1524 1525 1527 1529 1530 1532 1534 1535 1537 1538 1539 1540 1541 1542 1543 1544 1545 1546 1547 1548
1493 1492 1494 1494 1501 1511 1503 1489 1485 1483 1481 1481 1482 1483 1484 1485 1486 1487 1488 1492 1497 1501 1505 1509 1513 1516 1519 1521 1523 1525 1527 1528 1530 1532 1533 1535 1537 1538 1540 1541 1542 1543 1544 1545 1546 1546 1548 1549 1550
1493 1493 1495 1496 1502 1507 1499 1486 1484 1482 1482 1482 1483 1484 1485 1486 1486 1487 1489 1493 1498 1502 1506 1510 1513 1517 1519 1522 1524 1526 1528 1530 1531 1533 1535 1537 1538 1540 1541 1542 1543 1544 1545 1546 1547 1548 1550 1551 1552
1493 1495 1496 1500 1501 1495 1489 1483 1482 1482 1482 1482 1483 1485 1486 1487 1487 1488 1491 1494 1499 1503 1507 1510 1514 1517 1520 1523 1525 1527 1529 1531 1533 1535 1536 1538 1540 1541 1543 1544 1545 1546 1547 1548 1549 1550 1551 1553 1554
1494 1495 1500 1505 1500 1490 1483 1481 1481 1482 1482 1482 1483 1484 1486 1488 1488 1489 1492 1495 1499 1504 1508 1511 1515 1518 1521 1523 1526 1528 1530 1533 1534 1536 1538 1540 1541 1543 1544 1545 1546 1547 1548 1550 1551 1552 1554 1555 1557
1494 1495 1507 1509 1499 1486 1481 1479 1479 1481 1482 1482 1483 1485 1486 1487 1488 1491 1493 1497 1501 1504 1508 1512 1515 1518 1521 1524 1527 1529 1532 1534 1536 1537 1539 1541 1542 1544 1545 1547 1548 1549 1550 1551 1553 1554 1556 1557 1559
1495 1499 1505 1503 1499 1489 1480 1478 1478 1479 1480 1481 1482 1484 1486 1487 1489 1491 1494 1498 1501 1505 1509 1512 1515 1519 1522 1525 1528 1530 1533 1535 1537 1539 1541 1542 1544 1545 1547 1548 1549 1550 1552 1553 1555 1556 1558 1559 1561
1494 1499 1502 1502 1497 1489 1480 1478 1478 1479 1480 1481 1482 1483 1484 1486 1488 1491 1494 1498 1502 1505 1508 1512 1515 1519 1522 1525 1528 1531 1533 1536 1538 1540 1542 1543 1545 1547 1548 1549 1551 1552 1553 1555 1557 1558 1560 1561 1563
1494 1503 1506 1498 1493 1485 1479 1478 1478 1478 1479 1480 1481 1482 1483 1485 1487 1490 1494 1498 1501 1505 1508 1511 1515 1518 1522 1525 1529 1531 1534 1536 1539 1541 1543 1545 1546 1548 1549 1551 1552 1553 1555 1556 1558 1559 1561 1563 1564
1494 1504 1497 1488 1483 1480 1477 1477 1477 1478 1479 1479 1480 1481 1482 1484 1487 1489 1492 1495 1499 1503 1507 1511 1514 1518 1522 1525 1528 1531 1534 1537 1539 1541 1543 1545 1547 1549 1550 1552 1553 1555 1556 1557 1559 1561 1562 1564 1565
1491 1494 1487 1482 1479 1478 1476 1475 1475 1476 1478 1476 1476 1478 1481 1484 1486 1489 1491 1494 1498 1502 1506 1510 1514 1518 1522 1525 1528 1531 1534 1537 1540 1542 1544 1546 1548 1549 1551 1553 1554 1556 1557 1558 1560 1561 1563 1565 1566
1489 1486 1483 1479 1477 1476 1474 1473 1474 1474 1474 1473 1475 1477 1479 1482 1485 1487 1490 1494 1498 1502 1506 1511 1515 1518 1521 1525 1528 1531 1534 1537 1540 1542 1544 1547 1548 1550 1552 1554 1555 1557 1558 1560 1561 1563 1564 1565 1567
1486 1483 1480 1477 1475 1473 1472 1472 1473 1473 1473 1473 1475 1477 1479 1482 1485 1487 1490 1493 1497 1501 1505 1510 1515 1518 1522 1525 1528 1532 1535 1538 1540 1543 1545 1547 1549 1551 1553 1554 1556 1557 1559 1561 1562 1563 1565 1566 1568
1483 1480 1478 1475 1473 1472 1472 1472 1472 1473 1473 1473 1474 1476 1478 1481 1484 1487 1489 1492 1495 1500 1504 1509 1514 1518 1521 1525 1528 1531 1535 1538 1540 1543 1545 1547 1550 1552 1553 1555 1556 1558 1560 1561 1563 1564 1566 1567 1568
1481 1481 1477 1474 1472 1472 1472 1475 1473 1472 1472 1473 1475 1477 1479 1481 1483 1484 1487 1490 1493 1497 1503 1508 1513 1517 1520 1524 1528 1531 1534 1537 1540 1543 1545 1547 1550 1552 1554 1555 1557 1558 1560 1561 1563 1564 1566 1567 1568
1482 1485 1488 1478 1473 1472 1476 1482 1473 1472 1471 1473 1475 1476 1478 1480 1481 1484 1487 1489 1492 1496 1501 1506 1511 1516 1519 1523 1528 1531 1534 1537 1540 1542 1545 1547 1550 1552 1554 1555 1557 1558 1560 1561 1563 1564 1566 1567 1568
1492 1496 1492 1483 1474 1473 1477 1480 1473 1472 1471 1473 1474 1475 1477 1479 1481 1484 1486 1488 1492 1496 1500 1505 1509 1514 1518 1522 1526 1530 1534 1536 1539 1542 1544 1547 1549 1551 1553 1555 1557 1558 1560 1561 1563 1564 1565 1567 1568
1498 1495 1493 1489 1478 1476 1478 1478 1473 1472 1472 1473 1475 1476 1477 1478 1480 1483 1486 1489 1492 1495 1499 1503 1508 1512 1517 1521 1525 1529 1532 1535 1538 1541 1543 1546 1548 1551 1553 1555 1556 1558 1559 1561 1562 1564 1565 1567 1568
1488 1492 1494 1486 1477 1478 1479 1478 1474 1472 1473 1473 1474 1475 1476 1477 1480 1482 1485 1488 1491 1494 1498 1502 1506 1510 1515 1519 1523 1527 1530 1533 1537 1539 1542 1545 1547 1550 1552 1554 1556 1557 1559 1560 1562 1563 1565 1566 1567
1487 1492 1492 1483 1476 1478 1480 1479 1473 1472 1472 1472 1473 1474 1474 1476 1479 1481 1483 1486 1489 1492 1495 1499 1504 1509 1513 1517 1521 1525 1529 1532 1535 1538 1541 1544 1546 1549 1551 1553 1555 1556 1558 1559 1561 1563 1564 1565 1567
1487 1490 1488 1486 1480 1478 1481 1483 1476 1472 1471 1471 1471 1471 1473 1475 1477 1479 1481 1482 1486 1490 1493 1497 1502 1507 1511 1516 1520 1524 1527 1531 1534 1536 1539 1542 1545 1547 1550 1552 1553 1555 1557 1558 1560 1562 1563 1564 1566
1489 1479 1480 1482 1489 1495 1488 1501 1482 1475 1472 1469 1469 1470 1472 1474 1476 1477 1478 1480 1484 1488 1493 1496 1501 1506 1510 1514 1518 1521 1524 1528 1531 1534 1537 1540 1543 1545 1548 1550 1552 1554 1556 1557 1559 1561 1562 1564 1565
1478 1473 1476 1480 1487 1495 1492 1500 1490 1477 1474 1469 1468 1469 1470 1472 1474 1475 1477 1480 1484 1488 1492 1496 1500 1504 1508 1512 1516 1520 1523 1527 1530 1533 1536 1538 1541 1543 1546 1548 1550 1552 1554 1556 1558 1559 1561 1562 1564
1468 1475 1482 1490 1496 1506 1495 1499 1494 1480 1472 1468 1467 1467 1469 1471 1472 1474 1477 1481 1484 1487 1491 1495 1499 1503 1507 1511 1515 1518 1521 1525 1528 1530 1533 1536 1539 1541 1543 1546 1548 1550 1552 1554 1556 1558 1559 1561 1562
1470 1488 1507 1507 1515 1511 1495 1496 1491 1469 1465 1464 1465 1466 1468 1470 1472 1474 1477 1480 1484 1487 1490 1494 1498 1502 1505 1509 1513 1516 1519 1523 1526 1529 1531 1534 1536 1539 1541 1544 1546 1548 1550 1552 1554 1556 1557 1559 1561
1472 1482 1504 1513 1515 1508 1496 1496 1479 1464 1462 1462 1463 1464 1467 1469 1471 1474 1476 1479 1483 1486 1490 1493 1497 1500 1504 1507 1511 1514 1517 1521 1524 1527 1530 1532 1534 1537 1539 1542 1544 1546 1549 1550 1552 1554 1556 1557 1559
1471 1478 1477 1497 1503 1507 1500 1488 1472 1462 1463 1462 1463 1464 1466 1467 1470 1473 1475 1478 1482 1485 1488 1492 1495 1498 1502 1505 1509 1512 1516 1519 1522 1525 1528 1530 1532 1535 1537 1539 1542 1544 1546 1548 1550 1552 1554 1556 1557
1458 1469 1485 1497 1510 1511 1499 1491 1484 1467 1464 1463 1463 1463 1465 1467 1469 1472 1475 1478 1481 1485 1488 1491 1494 1497 1500 1503 1506 1510 1513 1516 1519 1522 1525 1527 1530 1532 1535 1537 1540 1542 1544 1546 1548 1550 1552 1553 1555
1463 1470 1479 1493 1495 1507 1507 1494 1466 1464 1461 1462 1462 1462 1464 1466 1468 1471 1474 1478 1481 1484 1487 1489 1492 1495 1498 1501 1504 1507 1510 1513 1516 1519 1522 1524 1527 1530 1532 1535 1537 1539 1542 1544 1546 1548 1550 1551 1553
1452 1461 1473 1485 1493 1497 1500 1490 1458 1458 1459 1460 1460 1461 1463 1465 1467 1470 1473 1476 1480 1482 1485 1488 1491 1493 1496 1499 1502 1505 1508 1510 1513 1516 1519 1522 1524 1527 1530 1532 1534 1537 1539 1542 1544 1546 1548 1549 1551